Hourly Data Report for October 30, 2016

All times are specified in Local Standard Time (LST). Add 1 hour to adjust for Daylight Saving Time where and when it is observed.

PANGNIRTUNG
NUNAVUT

66°08'36.300" N
65°42'40.500" W
22.60 m
2403049
71826
WXP

Download Data

Hourly Data (October 2016)
Hourly Data Report for October 30, 2016
Temp Definition
°C
Dew Point Temp Definition
°C
Rel Hum Definition
%
Wind Dir Definition
10's deg

Wind Spd Definition
km/h
Visibility Definition
km
Stn Press Definition
kPa
Hmdx Definition


Wind Chill Definition


Weather Definition


TIME
00:00 -6.1 -7.1 93 24 29   99.70   -14 LegendNANA
01:00 -6.5 -7.4 93 24 29   99.79   -15 LegendNANA
02:00 -6.5 -7.8 90 25 27   99.85   -15 LegendNANA
03:00 -6.5 -8.3 87 24 19   99.92   -13 LegendNANA
04:00 -6.9 -8.3 90 23 12   99.94   -12 LegendNANA
05:00 -6.7 -9.6 80 19 18   99.99   -13 LegendNANA
06:00 -6.8 -10.3 76 15 3   100.04   -8 LegendNANA
07:00 -9.1 -12.2 78 11 10   100.03   -14 LegendNANA
08:00 -8.4 -11.5 79 13 19   100.01   -16 LegendNANA
09:00 -6.7 -11.6 68 10 18   99.99   -13 LegendNANA
10:00 -5.7 -11.2 65 7 34   99.91   -14 LegendNANA
11:00 -4.9 -9.4 70 6 22   99.87   -12 LegendNANA
12:00 -4.5 -8.1 76 7 31   99.74   -12 LegendNANA
13:00 -3.5 -6.7 78 7 36   99.63   -12 LegendNANA
14:00 -2.7 -7.0 72 7 40   99.56   -11 LegendNANA
15:00 -2.5 -6.1 77 8 36   99.47   -10 LegendNANA
16:00 -2.1 -5.3 79 8 37   99.35   -10 LegendNANA
17:00 -2.1 -4.8 81 7 30   99.28   -9 LegendNANA
18:00 -2.5 -3.6 92 6 31   99.23   -10 LegendNANA
19:00 -3.2 -4.5 91 22 14   99.40   -8 LegendNANA
20:00 -2.6 -5.2 82 17 8   99.41   -6 LegendNANA
21:00 -3.1 -7.2 74 18 14   99.44   -8 LegendNANA
22:00 -3.5 -8.3 69 16 18   99.44   -9 LegendNANA
23:00 -3.4 -7.9 71 14 17   99.40   -9 LegendNANA

Notes on Data Quality.

Legend

  • E = Estimated
  • M = Missing
  • NA = Not Available
  • ‡ = Partner data that is not subject to review by the National Climate Archives
Date modified: